Location: Boulincourt
(48.8484°N, 1.7779°E)
Time: 21:49:29
(UTC+00:00)

Daily predictions for brighter satellites

Satellite Brightness Start Highest point End
(mag) Time Altitude Azimuth Time Altitude Azimuth Time Altitude Azimuth
Cosmos 2227 Rocket 2.4 16:23:56 10° NNW 16:29:26 50° NE 16:34:54 10° SE
Meteor 1-28 Rocket 3.6 16:27:11 10° NNE 16:30:17 35° E 16:33:21 10° SSE
Cosmos 2369 Rocket 4.2 16:28:13 10° W 16:32:03 18° NW 16:35:54 10° N
CBERS-1 4.0 16:27:30 10° SSE 16:32:33 66° ENE 16:37:37 10° N
CENTAUR R/B 3.6 16:34:54 10° W 16:40:33 38° NNW 16:47:34 10° NE
Cosmos 1697 Rocket 3.0 16:35:54 10° S 16:41:14 47° ESE 16:46:36 10° NE
Cosmos 2360 4.3 16:37:05 10° SSW 16:42:48 87° WNW 16:48:34 10° NNE
Cosmos 1626 Rocket 4.1 16:38:56 10° NNW 16:43:13 62° W 16:47:26 10° S
CZ-2D R/B 3.9 16:41:52 10° ESE 16:44:25 23° ENE 16:47:00 10° NNE
NOSS 2-3 (C) 4.5 16:42:25 10° S 16:45:09 22° ESE 16:47:48 11° ENE
Cosmos 2266 Rocket 3.9 16:42:57 10° N 16:49:04 67° ENE 16:55:04 10° SSE
Cosmos 1656 4.2 16:45:04 10° SW 16:50:38 60° WNW 16:56:18 10° NNE
Cosmos 2228 4.4 16:47:39 10° SW 16:51:38 39° WNW 16:55:38 10° N
Cosmos 1606 Rocket 4.0 16:48:23 10° SSE 16:52:32 42° E 16:56:43 10° NNE
Cosmos 1503 Rocket 4.0 16:49:32 10° SSW 16:54:46 81° ESE 16:59:59 10° NNE
Lacrosse 5 rocket 2.6 16:53:14 10° WNW 16:56:17 23° N 16:58:51 12° NE
UNK 3.9 16:54:44 10° NNE 16:59:14 52° E 17:03:40 10° S
CZ-4C R/B 3.4 16:52:20 10° NW 16:59:19 72° SW 17:07:57 10° SSE
Cosmos 1484 Rocket 3.2 16:56:11 10° S 16:59:38 57° W 17:03:05 10° NNW
Thor Agena Rocket 3.5 16:55:39 10° SSE 17:00:50 83° ENE 17:06:01 10° NNW
Cosmos 1743 3.3 16:58:21 10° NNW 17:01:30 48° W 17:04:37 10° S
Cosmos 1544 Rocket 4.4 16:57:38 10° SSW 17:01:57 54° WNW 17:06:19 10° N
IRS-P3 4.4 16:58:36 10° SE 17:03:36 43° ENE 17:08:36 10° N
NOSS 2-3 (D) 3.7 17:00:53 10° SSW 17:04:21 41° ESE 17:07:02 16° ENE
NOSS 2-3 (E) 3.6 17:01:29 10° SSW 17:04:59 45° SE 17:07:43 16° ENE
Cosmos 1354 Rocket 4.0 17:00:33 10° SSW 17:05:47 72° ESE 17:11:02 10° NNE
IGS 5A 3.8 17:03:10 10° S 17:07:06 64° W 17:11:04 10° NNW
Cosmos 1777 Rocket 4.3 17:02:48 10° SSW 17:08:01 70° WNW 17:13:16 10° NNE
Cosmos-2242 4.2 17:06:18 10° SE 17:09:30 21° E 17:11:23 16° NE
Cosmos 2151 3.5 17:05:30 10° NNW 17:09:37 62° W 17:13:43 10° S
USA 238 DEB 4.0 17:04:03 10° S 17:09:42 42° ESE 17:14:48 15° NE
USA 238 4.0 17:04:09 10° S 17:09:49 42° ESE 17:14:54 15° NE
MOS 1 Rocket 3.6 17:05:39 10° SE 17:10:29 51° ENE 17:15:34 10° N
Cosmos 1898 Rocket 4.4 17:09:26 10° SSE 17:13:41 27° E 17:16:31 17° NE
Gbstr 26 Del rocket 2.8 17:09:49 10° WSW 17:13:58 73° SSE 17:16:29 20° ENE
Cosmos 1726 Rocket 3.8 17:10:32 10° S 17:15:02 53° E 17:19:29 10° NNE
ERS-1 4.4 17:11:39 10° SSE 17:16:35 61° ENE 17:21:28 10° N
USA 215 3.8 17:12:07 15° ENE 17:17:19 45° N 17:23:28 10° WNW
IRIDIUM 104 4.5 17:12:21 10° N 17:17:35 78° W 17:22:47 10° S
Cosmos 2082 4.1 17:12:32 10° NNW 17:17:56 40° NE 17:23:17 10° ESE
AQUARIUS 4.1 17:13:45 10° SSE 17:18:03 58° ENE 17:22:24 10° N
SMAP 3.2 17:14:43 10° SSE 17:19:22 82° WSW 17:24:04 10° NNW
Cosmos 1805 3.9 17:17:47 10° NNE 17:20:37 24° ENE 17:23:25 10° SE
Cosmos 2297 Rocket 4.0 17:16:32 10° NW 17:21:37 35° WSW 17:26:40 10° S
Landsat 7 3.7 17:18:51 10° SSE 17:23:29 86° ENE 17:28:11 10° NNW
GEOS 3 Rocket 3.8 17:19:09 15° NE 17:23:36 66° SE 17:28:56 10° SSW
YAOGAN 1 3.3 17:22:42 10° SE 17:26:22 29° ENE 17:30:02 10° N
Cosmos 1937 Rocket 4.4 17:24:57 10° SSE 17:29:14 27° E 17:30:51 23° ENE
Okean 1-7 Rocket 4.3 17:26:15 10° NNW 17:30:32 55° W 17:34:47 10° S
SL-16 R/B 4.1 17:28:44 10° ESE 17:29:26 11° ESE 17:29:26 11° ESE
Cosmos 990 Rocket 4.0 17:28:03 10° SSW 17:33:10 82° WNW 17:38:14 11° NNE
Cosmos 1461 4.0 17:30:00 10° WSW 17:33:36 34° NW 17:36:23 15° NNE
CZ-2D R/B 3.9 17:30:31 10° SE 17:34:23 38° ENE 17:38:13 10° N
SL-16 R/B 3.3 17:29:15 10° N 17:35:15 51° WNW 17:41:12 10° SW
SKYMED 2 4.0 17:35:14 22° NE 17:37:29 39° E 17:41:32 10° SSE
COSMOS 2455 4.0 17:33:19 10° SSE 17:37:46 22° ESE 17:38:36 21° E
Okean 1 3.9 17:35:31 10° SSE 17:38:20 29° ESE 17:38:20 29° ESE
SJ-6F 4.3 17:40:45 10° SSE 17:44:44 89° WSW 17:48:48 10° NNW
Cosmos 1844 Rocket 3.5 17:39:58 10° NNW 17:44:52 29° NE 17:45:49 27° ENE
Cosmos 2219 3.1 17:39:27 10° NNW 17:45:13 72° ENE 17:50:57 10° SE
Cosmos 1980 Rocket 2.1 17:39:57 10° SSW 17:45:32 68° ESE 17:49:21 21° NE
Aureole 1 Rocket 3.4 17:42:56 10° S 17:47:30 68° ESE 17:51:47 18° NNE
Cosmos 1953 Rocket 3.6 17:43:04 10° N 17:47:33 84° W 17:52:00 10° S
Meteor 1-26 Rocket 4.2 17:43:37 10° SSE 17:48:48 50° E 17:52:48 17° NNE
PSLV R/B 3.7 17:50:00 38° E 17:50:29 40° ENE 17:54:18 10° N
ARIANE 5 R/B 3.2 17:47:32 10° S 17:52:31 56° WSW 17:57:36 10° NNW
Cosmos 2263 Rocket 2.4 17:47:43 10° NNW 17:53:23 73° WSW 17:59:03 10° SSE
SL-19 R/B 4.3 17:48:11 10° SE 17:53:26 52° ENE 17:59:00 10° N
BREEZE-M DEB (TANK) 3.4 17:53:48 10° SW 17:57:11 29° SSE 17:57:13 29° SSE
Cosmos 1680 Rocket 3.7 17:53:46 10° NNW 17:58:46 44° ENE 18:00:24 34° ESE
COSMO-SKYMED 1 2.9 17:59:08 40° ESE 17:59:08 40° ESE 18:02:42 10° S
NOSS 3-2 (C) 4.1 17:54:19 10° WSW 17:59:21 43° NW 18:03:20 20° NNE
BREEZE-M DEB (TANK) 3.9 17:55:46 10° W 17:59:21 83° SSW 18:06:53 20° ESE
NOAA 15 4.5 17:55:30 10° SSE 18:00:45 69° ENE 18:06:01 10° N
Cosmos 1076 Rocket 4.3 17:57:56 10° NNW 18:02:09 54° W 18:06:21 10° S
Meteor 2-10 4.1 17:56:59 10° NNW 18:02:25 86° W 18:08:00 10° S
NOAA 6 4.1 17:57:51 10° SE 18:02:45 48° ENE 18:07:39 10° N
Cosmos 2369 3.8 17:57:40 10° S 18:03:13 54° ESE 18:05:20 35° NE
USA 81 4.1 18:06:17 10° N 18:11:34 78° W 18:16:49 10° S
Cosmos 44 Rocket 3.8 18:07:01 10° NNW 18:11:53 41° NE 18:11:53 41° NE
Cosmos 2227 Rocket 4.1 18:08:21 10° NW 18:13:15 31° WSW 18:18:09 10° SSW
SPOT 1/Viking Rocket 3.8 18:11:23 10° S 18:16:34 71° WSW 18:21:47 10° NNW
Cosmos 2058 Rocket 3.4 18:19:23 10° SSW 18:23:49 65° WNW 18:26:26 24° N
Cosmos 1697 Rocket 4.0 18:20:15 10° WSW 18:25:21 35° NW 18:29:16 16° N
OceanSat 1 rocket 4.4 18:21:27 10° SSE 18:26:10 82° ENE 18:30:54 10° NNW
Cosmos 2333 Rocket 4.1 18:28:15 10° SSE 18:29:34 16° SSE 18:29:34 16° SSE
CENTAUR R/B 4.2 18:27:34 10° NW 18:33:20 27° N 18:35:36 23° NNE
Lacrosse 5 rocket 3.1 18:30:55 10° NW 18:32:26 19° NNW 18:32:26 19° NNW
Meteor 2-11 Rocket 4.3 18:28:19 10° N 18:34:31 85° E 18:40:40 10° S
NOSS 2-3 (C) 4.3 18:31:51 10° WSW 18:34:52 36° NW 18:34:52 36° NW
Meteor 1-14 Rocket 4.1 18:32:56 10° N 18:38:43 71° ENE 18:39:10 67° ESE
Resurs 1-3 4.3 18:39:17 10° S 18:43:29 52° W 18:47:42 10° NNW
Cosmos-2242 4.2 18:42:15 10° SW 18:46:16 40° WNW 18:47:46 30° NNW
Cosmos 1898 Rocket 4.3 18:50:25 10° SW 18:55:24 48° WNW 18:56:45 39° NNW
Cosmos 1844 4.1 18:50:26 10° NNW 18:54:37 50° N 18:54:37 50° N
USA 215 3.5 18:59:28 51° NNE 18:59:40 51° NNE 19:05:58 10° WNW
USA 238 DEB 4.1 18:54:24 10° WSW 19:00:29 53° NW 19:02:15 42° N
Cosmos 2112 Rocket 4.3 18:55:18 10° NNW 18:59:47 63° NW 18:59:47 63° NW
USA 238 4.1 18:54:30 10° WSW 19:00:35 53° NW 19:02:21 42° N
Cosmos 1553 Rocket 4.4 18:54:37 10° SSW 19:00:42 59° WNW 19:06:56 10° N
S3M 4.4 18:54:51 10° S 18:59:18 47° SSE 18:59:18 47° SSE
YAOGAN 1 4.2 18:58:17 10° SSW 19:02:08 33° W 19:06:00 10° NNW
BREEZE-M DEB (TANK) 3.8 19:01:12 10° SW 19:06:16 46° SSW 19:06:16 46° SSW
Cosmos 1937 Rocket 4.2 19:05:51 10° SW 19:10:50 48° WNW 19:10:58 48° NW
Cosmos 2237 4.5 19:07:49 10° SW 19:12:59 65° W 19:12:59 65° W
SL-16 R/B 3.4 19:08:27 10° SSW 19:11:20 31° SSW 19:11:20 31° SSW
Cosmos 1745 Rocket 4.2 19:10:25 10° NNW 19:16:33 68° W 19:22:36 10° S
COSMOS 2455 3.3 19:17:01 10° SW 19:21:46 57° SW 19:21:46 57° SW
Cosmos 1844 Rocket 3.6 19:23:34 10° NNW 19:27:31 44° NW 19:27:31 44° NW
Cosmos 1980 Rocket 3.9 19:25:18 10° WSW 19:30:01 27° NW 19:31:07 25° NNW
CENTAUR R/B 4.5 20:19:10 10° NW 20:22:41 26° NNW 20:22:41 26° NNW
